Hourly Data Report for October 31, 2013

All times are specified in Local Standard Time (LST). Add 1 hour to adjust for Daylight Saving Time where and when it is observed.

IQALUIT CLIMATE
NUNAVUT

63°44'50.000" N
68°32'40.000" W
33.50 m
2402592
71321
XFB

Download Data

Hourly Data (October 2013)
Hourly Data Report for October 31, 2013
Temp Definition
°C
Dew Point Temp Definition
°C
Rel Hum Definition
%
Wind Dir Definition
10's deg

Wind Spd Definition
km/h
Visibility Definition
km
Stn Press Definition
kPa
Hmdx Definition


Wind Chill Definition


Weather Definition


TIME
00:00 -8.7 -9.6 93 33 19   100.40   -16 LegendNANA
01:00 -8.6 -9.9 90 33 19   100.38   -16 LegendNANA
02:00 -8.3 -9.7 90 34 19   100.37   -16 LegendNANA
03:00 -9.1 -10.6 89 32 24   100.36   -17 LegendNANA
04:00 -7.8 -9.6 87 31 17   100.35   -14 LegendNANA
05:00 -6.6 -9.0 83 31 11   100.34   -12 LegendNANA
06:00 -5.6 -8.6 79 29 6   100.35   -8 LegendNANA
07:00 -5.3 -8.8 76 27 6   100.37   -8 LegendNANA
08:00 -5.5 -9.4 74 5 7   100.38   -9 LegendNANA
09:00 -7.4 -10.3 80 31 13   100.36   -13 LegendNANA
10:00 -5.9 -10.2 72 5 20   100.33   -13 LegendNANA
11:00 -6.2 -10.7 70 34 7   100.27   -10 LegendNANA
12:00 -5.2 -9.9 70 5 17   100.26   -11 LegendNANA
13:00 -6.1 -10.2 73 34 7   100.25   -9 LegendNANA
14:00 -5.0 -9.5 71 6 13   100.24   -10 LegendNANA
15:00 -5.5 -9.7 72 4 13   100.25   -11 LegendNANA
16:00 -5.8 -9.8 73 3 9   100.26   -10 LegendNANA
17:00 -5.1 -9.8 70 36 6   100.26   -8 LegendNANA
18:00 -5.5 -10.0 71 5 6   100.26   -8 LegendNANA
19:00 -6.5 -10.3 74 5 9   100.25   -11 LegendNANA
20:00 -6.7 -10.2 76 3 19   100.24   -14 LegendNANA
21:00 -7.2 -10.7 76 4 20   100.24   -14 LegendNANA
22:00 -7.8 -11.2 77 2 9   100.21   -12 LegendNANA
23:00 -7.8 -11.1 77 31 6   100.22   -11 LegendNANA

Notes on Data Quality.

Legend

  • E = Estimated
  • M = Missing
  • NA = Not Available
  • ‡ = Partner data that is not subject to review by the National Climate Archives
Date modified: